Regional Weather Roundup
Issued by NWS

Home | Current Version | Previous Version | Text Only | Print | Product List | Glossary On
Versions: 1 2 3 4 5 6 7 8 9 10 11 12 13 14 15 16 17 18 19 20 21 22 23 24 25 26 27 28 29 30 31 32 33 34 35 36 37 38 39 40 41 42 43 44 45 46 47 48 49 50
000
ASUS43 KTOP 250808
RWRKS

WEATHER ROUNDUP FOR KANSAS
NATIONAL WEATHER SERVICE GOODLAND KS
300 AM CDT SUN JUN 25 2017

NOTE:  "FAIR" INDICATES FEW OR NO CLOUDS BELOW 12,000 FEET WITH NO
SIGNIFICANT WEATHER AND/OR OBSTRUCTIONS TO VISIBILITY.

KSZ001>006-013>018-027>032-041>047-250900-
NORTHWEST KANSAS

CITY           SKY/WX    TMP DP  RH WIND       PRES   REMARKS
GOODLAND       LGT RAIN  56  52  86 SE9       30.35F
HAYS           CLOUDY    63  49  60 E10       30.29S
HILL CITY      MOCLDY    61  59  93 NE3       30.29S
RUSSELL        MOCLDY    59  52  77 E9        30.26F
$$

KSZ061>065-074>080-084>089-250900-
SOUTHWEST KANSAS

CITY           SKY/WX    TMP DP  RH WIND       PRES   REMARKS
DODGE CITY     CLOUDY    69  54  58 S8        30.27S
ELKHART          N/A     65  52  63 S5          N/A
GARDEN CITY    CLOUDY    67  52  58 SE9       30.28R
GREAT BEND     CLOUDY    69  47  45 E13       30.29R
PRATT          MOCLDY    65  50  57 SE6       30.28R
$$

KSZ066>073-081>083-090>101-250900-
SOUTHEAST KANSAS

CITY           SKY/WX    TMP DP  RH WIND       PRES   REMARKS
CHANUTE        CLOUDY    63  54  72 W3        30.25S
COFFEYVILLE    CLOUDY    65  59  81 CALM      30.24S
HUTCHINSON     PTCLDY    64  52  64 NE8       30.28R
MEDICINE LODGE   N/A     66  52  60 SE3       30.26S
NEWTON         PTCLDY    63  51  65 E6        30.29R
PARSONS        CLOUDY    63  58  83 CALM      30.26R
WICHITA INTL   MOCLDY    67  54  63 E5        30.26R
WICHITA JABRA  MOCLDY    64  55  72 SE5       30.26S
WICHITA MCCONL PTCLDY    67  53  60 SE3       30.26S
WINFIELD       CLEAR     65  53  65 SE5       30.27R
$$

KSZ007>012-019>026-033>040-048>060-102>105-250900-
NORTHEAST KANSAS

CITY           SKY/WX    TMP DP  RH WIND       PRES   REMARKS
CONCORDIA      CLEAR     62  51  67 SW9       30.26S
EMPORIA        CLOUDY    65  53  65 S8        30.26F
LAWRENCE       MOCLDY    63  55  75 NW3       30.22S
MANHATTAN      CLOUDY    65  55  70 SW7       30.26R
MARYSVILLE     PTCLDY    52  46  82 CALM      30.25R
OLATHE IND     CLOUDY    68  50  52 SW10      30.23S
OLATHE EXE     CLOUDY    67  51  56 SW5       30.23S
SALINA         LGT RAIN  64  58  80 W3        30.30F
TOPEKA BILLARD CLOUDY    67  50  54 W7        30.23R
TOPEKA FORBES  CLOUDY    67  52  58 SW9       30.23S
$$




USA.gov is the U.S. government's official web portal to all federal, state and local government web resources and services.